| time (UTC) | temp F | wind direction | speed MPH | gust MPH | rain 1hr in | rain 24hr in | rain mn in | humidity % | barometer mb |
| 20260509194721 | 67 | 148 | 7.0 | 10.0 | 0.00 | 0.00 | 0.00 | 29 | 1016.6 |
| 20260509193729 | 68 | 195 | 5.0 | 9.0 | 0.00 | 0.00 | 0.00 | 30 | 1016.8 |
| 20260509192719 | 67 | 304 | 2.0 | 8.0 | 0.00 | 0.00 | 0.00 | 30 | 1017.0 |
| 20260509191748 | 67 | 208 | 5.0 | 7.0 | 0.00 | 0.00 | 0.00 | 27 | 1017.0 |
| 20260509190719 | 66 | 11 | 2.0 | 9.0 | 0.00 | 0.00 | 0.00 | 29 | 1017.1 |
| 20260509185717 | 66 | 185 | 4.0 | 10.0 | 0.00 | 0.00 | 0.00 | 29 | 1017.2 |
| 20260509184726 | 66 | 168 | 5.0 | 10.0 | 0.00 | 0.00 | 0.00 | 30 | 1017.2 |
| 20260509183735 | 65 | 200 | 6.0 | 10.0 | 0.00 | 0.00 | 0.00 | 33 | 1017.3 |
| 20260509182729 | 65 | 180 | 5.0 | 10.0 | 0.00 | 0.00 | 0.00 | 31 | 1017.3 |
| 20260509181719 | 65 | 148 | 5.0 | 8.0 | 0.00 | 0.00 | 0.00 | 33 | 1017.3 |
| 20260509180724 | 65 | 275 | 1.0 | 9.0 | 0.00 | 0.00 | 0.00 | 30 | 1017.3 |
| 20260509175719 | 65 | 175 | 4.0 | 10.0 | 0.00 | 0.00 | 0.00 | 33 | 1017.6 |
| 20260509174727 | 64 | 107 | 2.0 | 5.0 | 0.00 | 0.00 | 0.00 | 32 | 1017.5 |
| 20260509173721 | 63 | 196 | 1.0 | 8.0 | 0.00 | 0.00 | 0.00 | 31 | 1017.7 |
| 20260509172727 | 64 | 198 | 4.0 | 8.0 | 0.00 | 0.00 | 0.00 | 31 | 1017.7 |
| 20260509171734 | 64 | 136 | 1.0 | 5.0 | 0.00 | 0.00 | 0.00 | 29 | 1017.6 |
| 20260509170722 | 63 | 145 | 3.0 | 7.0 | 0.00 | 0.00 | 0.00 | 29 | 1017.6 |
| 20260509165722 | 63 | 250 | 1.0 | 5.0 | 0.00 | 0.00 | 0.00 | 31 | 1017.7 |
| 20260509164730 | 62 | 220 | 4.0 | 6.0 | 0.00 | 0.00 | 0.00 | 31 | 1017.7 |
| 20260509163719 | 62 | 202 | 2.0 | 6.0 | 0.00 | 0.00 | 0.00 | 32 | 1017.7 |
| 20260509162727 | 61 | 164 | 1.0 | 6.0 | 0.00 | 0.00 | 0.00 | 36 | 1017.7 |
| 20260509161716 | 61 | 226 | 1.0 | 5.0 | 0.00 | 0.00 | 0.00 | 38 | 1017.7 |
| 20260509160723 | 60 | 290 | 1.0 | 6.0 | 0.00 | 0.00 | 0.00 | 40 | 1017.7 |
| 20260509155719 | 60 | 194 | 3.0 | 7.0 | 0.00 | 0.00 | 0.00 | 44 | 1017.7 |
| 20260509154749 | 60 | 230 | 0.0 | 5.0 | 0.00 | 0.00 | 0.00 | 38 | 1017.6 |
| 20260509153737 | 59 | 180 | 5.0 | 7.0 | 0.00 | 0.00 | 0.00 | 44 | 1017.6 |
| 20260509152730 | 60 | 210 | 1.0 | 4.0 | 0.00 | 0.00 | 0.00 | 41 | 1017.7 |
| 20260509151718 | 58 | 341 | 2.0 | 5.0 | 0.00 | 0.00 | 0.00 | 44 | 1017.6 |
| 20260509150727 | 56 | 216 | 1.0 | 3.0 | 0.00 | 0.00 | 0.00 | 50 | 1017.5 |
| 20260509145722 | 55 | 179 | 1.0 | 4.0 | 0.00 | 0.00 | 0.00 | 58 | 1017.5 |
| 20260509144734 | 55 | 179 | 3.0 | 5.0 | 0.00 | 0.00 | 0.00 | 59 | 1017.4 |
| 20260509143719 | 54 | 177 | 2.0 | 4.0 | 0.00 | 0.00 | 0.00 | 58 | 1017.4 |
| 20260509142728 | 52 | 174 | 2.0 | 3.0 | 0.00 | 0.00 | 0.00 | 60 | 1017.3 |
| 20260509141736 | 51 | 173 | 2.0 | 4.0 | 0.00 | 0.00 | 0.00 | 62 | 1017.3 |
| 20260509140729 | 50 | 173 | 3.0 | 6.0 | 0.00 | 0.00 | 0.00 | 65 | 1017.3 |
| 20260509135725 | 50 | 182 | 5.0 | 7.0 | 0.00 | 0.00 | 0.00 | 64 | 1017.3 |
| 20260509134733 | 50 | 250 | 1.0 | 3.0 | 0.00 | 0.00 | 0.00 | 62 | 1017.2 |
| 20260509133721 | 49 | 287 | 1.0 | 4.0 | 0.00 | 0.00 | 0.00 | 62 | 1016.9 |
| 20260509132731 | 47 | 191 | 0.0 | 3.0 | 0.00 | 0.00 | 0.00 | 62 | 1016.9 |
| 20260509131756 | 47 | 190 | 1.0 | 3.0 | 0.00 | 0.00 | 0.00 | 61 | 1016.9 |
| 20260509130723 | 49 | 215 | 1.0 | 4.0 | 0.00 | 0.00 | 0.00 | 55 | 1016.8 |
| 20260509125717 | 52 | 245 | 2.0 | 9.0 | 0.00 | 0.00 | 0.00 | 48 | 1016.6 |
| 20260509124731 | 53 | 60 | 8.0 | 14.0 | 0.00 | 0.00 | 0.00 | 39 | 1016.4 |
| 20260509123719 | 49 | 20 | 3.0 | 8.0 | 0.00 | 0.00 | 0.00 | 44 | 1016.3 |
| 20260509122727 | 49 | 336 | 2.0 | 5.0 | 0.00 | 0.00 | 0.00 | 50 | 1016.2 |
| 20260509121716 | 48 | 27 | 2.0 | 5.0 | 0.00 | 0.00 | 0.00 | 48 | 1016.1 |
| 20260509120740 | 48 | 65 | 3.0 | 6.0 | 0.00 | 0.00 | 0.00 | 50 | 1016.2 |
| 20260509115719 | 49 | 327 | 1.0 | 8.0 | 0.00 | 0.00 | 0.00 | 51 | 1016.2 |
| 20260509114728 | 51 | 72 | 4.0 | 8.0 | 0.00 | 0.00 | 0.00 | 43 | 1016.0 |
| 20260509113719 | 51 | 67 | 2.0 | 5.0 | 0.00 | 0.00 | 0.00 | 44 | 1015.9 |
| 20260509112728 | 51 | 74 | 4.0 | 10.0 | 0.00 | 0.00 | 0.00 | 42 | 1015.8 |
| 20260509111721 | 53 | 134 | 5.0 | 9.0 | 0.00 | 0.00 | 0.00 | 39 | 1015.5 |
| 20260509110747 | 51 | 103 | 5.0 | 7.0 | 0.00 | 0.00 | 0.00 | 40 | 1015.6 |
| 20260509105737 | 50 | 69 | 3.0 | 6.0 | 0.00 | 0.00 | 0.00 | 44 | 1015.6 |
| 20260509104744 | 51 | 12 | 2.0 | 5.0 | 0.00 | 0.00 | 0.00 | 46 | 1015.4 |
| 20260509103733 | 50 | 63 | 1.0 | 6.0 | 0.00 | 0.00 | 0.00 | 44 | 1015.4 |
| 20260509102743 | 50 | 58 | 2.0 | 5.0 | 0.00 | 0.00 | 0.00 | 47 | 1015.4 |
| 20260509101755 | 50 | 55 | 2.0 | 5.0 | 0.00 | 0.00 | 0.00 | 45 | 1015.3 |
| 20260509100741 | 51 | 13 | 1.0 | 5.0 | 0.00 | 0.00 | 0.00 | 44 | 1015.3 |
| 20260509095730 | 51 | 130 | 2.0 | 3.0 | 0.00 | 0.00 | 0.00 | 45 | 1015.0 |
| 20260509094738 | 51 | 130 | 2.0 | 6.0 | 0.00 | 0.00 | 0.00 | 42 | 1014.9 |
| 20260509093749 | 54 | 182 | 1.0 | 5.0 | 0.00 | 0.00 | 0.00 | 44 | 1014.9 |
| 20260509092736 | 55 | 71 | 0.0 | 2.0 | 0.00 | 0.00 | 0.00 | 38 | 1014.9 |
| 20260509091745 | 56 | 71 | 2.0 | 6.0 | 0.00 | 0.00 | 0.00 | 34 | 1014.8 |
| 20260509090731 | 57 | 148 | 5.0 | 7.0 | 0.00 | 0.00 | 0.00 | 34 | 1014.6 |
| 20260509085806 | 57 | 183 | 2.0 | 9.0 | 0.00 | 0.00 | 0.00 | 32 | 1014.8 |
| 20260509084732 | 55 | 169 | 4.0 | 7.0 | 0.00 | 0.00 | 0.00 | 35 | 1014.6 |
| 20260509083758 | 56 | 146 | 3.0 | 5.0 | 0.00 | 0.00 | 0.00 | 37 | 1014.8 |
| 20260509082745 | 57 | 177 | 3.0 | 4.0 | 0.00 | 0.00 | 0.00 | 35 | 1014.6 |
| 20260509081731 | 58 | 215 | 1.0 | 6.0 | 0.00 | 0.00 | 0.00 | 32 | 1014.7 |
| 20260509080742 | 57 | 105 | 1.0 | 5.0 | 0.00 | 0.00 | 0.00 | 32 | 1014.5 |
| 20260509075736 | 56 | 173 | 4.0 | 6.0 | 0.00 | 0.00 | 0.00 | 35 | 1014.4 |
| 20260509074744 | 56 | 168 | 5.0 | 7.0 | 0.00 | 0.00 | 0.00 | 37 | 1014.4 |
| 20260509073730 | 58 | 154 | 2.0 | 5.0 | 0.00 | 0.00 | 0.00 | 43 | 1014.4 |
| 20260509072740 | 58 | 153 | 3.0 | 7.0 | 0.00 | 0.00 | 0.00 | 34 | 1014.4 |
| 20260509071727 | 58 | 148 | 4.0 | 5.0 | 0.00 | 0.00 | 0.00 | 34 | 1014.3 |
| 20260509070733 | 58 | 144 | 6.0 | 9.0 | 0.00 | 0.00 | 0.00 | 34 | 1014.3 |
| 20260509065745 | 58 | 154 | 6.0 | 8.0 | 0.00 | 0.00 | 0.00 | 37 | 1014.2 |
| 20260509064732 | 57 | 141 | 3.0 | 8.0 | 0.00 | 0.00 | 0.00 | 39 | 1014.2 |
| 20260509063742 | 56 | 152 | 5.0 | 7.0 | 0.00 | 0.00 | 0.00 | 39 | 1014.1 |
| 20260509062729 | 56 | 162 | 3.0 | 6.0 | 0.00 | 0.00 | 0.00 | 42 | 1014.0 |
| 20260509061736 | 55 | 163 | 4.0 | 7.0 | 0.00 | 0.00 | 0.00 | 43 | 1013.9 |
| 20260509060739 | 54 | 67 | 0.0 | 3.0 | 0.00 | 0.00 | 0.00 | 47 | 1013.9 |
| 20260509055731 | 54 | 67 | 2.0 | 5.0 | 0.00 | 0.00 | 0.00 | 47 | 1013.8 |
| 20260509054743 | 55 | 67 | 3.0 | 4.0 | 0.00 | 0.00 | 0.00 | 44 | 1013.8 |
| 20260509053731 | 55 | 67 | 0.0 | 1.0 | 0.00 | 0.00 | 0.00 | 42 | 1013.7 |
| 20260509052757 | 54 | 67 | 0.0 | 5.0 | 0.00 | 0.00 | 0.00 | 47 | 1013.7 |
| 20260509051742 | 54 | 66 | 4.0 | 6.0 | 0.00 | 0.00 | 0.00 | 46 | 1013.8 |
| 20260509050730 | 55 | 147 | 3.0 | 5.0 | 0.00 | 0.00 | 0.00 | 47 | 1013.8 |
| 20260509045741 | 56 | 175 | 1.0 | 4.0 | 0.00 | 0.00 | 0.00 | 45 | 1013.9 |
| 20260509044726 | 57 | 169 | 0.0 | 5.0 | 0.00 | 0.00 | 0.00 | 41 | 1013.8 |
| 20260509043734 | 59 | 88 | 4.0 | 6.0 | 0.00 | 0.00 | 0.00 | 37 | 1013.5 |
| 20260509042741 | 61 | 79 | 1.0 | 6.0 | 0.00 | 0.00 | 0.00 | 33 | 1013.5 |
| 20260509041754 | 62 | 79 | 4.0 | 8.0 | 0.00 | 0.00 | 0.00 | 31 | 1013.0 |
| 20260509040800 | 62 | 88 | 8.0 | 10.0 | 0.00 | 0.00 | 0.00 | 31 | 1013.2 |
| 20260509035732 | 61 | 105 | 5.0 | 7.0 | 0.00 | 0.00 | 0.00 | 32 | 1013.2 |
| 20260509034741 | 60 | 81 | 4.0 | 5.0 | 0.00 | 0.00 | 0.00 | 35 | 1013.3 |
| 20260509033733 | 61 | 78 | 3.0 | 5.0 | 0.00 | 0.00 | 0.00 | 36 | 1013.3 |
| 20260509032741 | 61 | 97 | 4.0 | 7.0 | 0.00 | 0.00 | 0.00 | 33 | 1013.2 |
| 20260509031729 | 62 | 101 | 1.0 | 3.0 | 0.00 | 0.00 | 0.00 | 34 | 1013.1 |
| 20260509030738 | 63 | 101 | 2.0 | 9.0 | 0.00 | 0.00 | 0.00 | 31 | 1013.0 |
| 20260509025737 | 63 | 103 | 5.0 | 8.0 | 0.00 | 0.00 | 0.00 | 32 | 1013.0 |
| 20260509024743 | 64 | 96 | 4.0 | 6.0 | 0.00 | 0.00 | 0.00 | 36 | 1012.9 |
| 20260509023730 | 66 | 93 | 0.0 | 4.0 | 0.00 | 0.00 | 0.00 | 30 | 1012.8 |
| 20260509022734 | 67 | 93 | 2.0 | 6.0 | 0.00 | 0.00 | 0.00 | 30 | 1012.6 |
| 20260509021743 | 67 | 107 | 3.0 | 6.0 | 0.00 | 0.00 | 0.00 | 29 | 1012.6 |
| 20260509020729 | 69 | 43 | 1.0 | 4.0 | 0.00 | 0.00 | 0.00 | 30 | 1012.4 |
| 20260509015743 | 70 | 360 | 2.0 | 4.0 | 0.00 | 0.00 | 0.00 | 30 | 1012.3 |
| 20260509014730 | 71 | 350 | 0.0 | 4.0 | 0.00 | 0.00 | 0.00 | 29 | 1012.1 |
| 20260509013735 | 72 | 350 | 1.0 | 5.0 | 0.00 | 0.00 | 0.00 | 27 | 1012.1 |
| 20260509012744 | 73 | 348 | 2.0 | 8.0 | 0.00 | 0.00 | 0.00 | 27 | 1011.9 |
| 20260509011731 | 74 | 360 | 3.0 | 5.0 | 0.00 | 0.00 | 0.00 | 24 | 1011.9 |
| 20260509010738 | 75 | 355 | 4.0 | 12.0 | 0.00 | 0.00 | 0.00 | 23 | 1011.8 |
| 20260509005727 | 76 | 5 | 4.0 | 11.0 | 0.00 | 0.00 | 0.00 | 22 | 1011.8 |
| 20260509004738 | 76 | 345 | 8.0 | 14.0 | 0.00 | 0.00 | 0.00 | 21 | 1011.7 |
| 20260509003745 | 77 | 344 | 7.0 | 15.0 | 0.00 | 0.00 | 0.00 | 20 | 1011.8 |
| 20260509002732 | 77 | 306 | 5.0 | 15.0 | 0.00 | 0.00 | 0.00 | 23 | 1011.9 |
| 20260509001737 | 77 | 355 | 6.0 | 10.0 | 0.00 | 0.00 | 0.00 | 22 | 1011.9 |
| 20260509000759 | 77 | 333 | 7.0 | 16.0 | 0.00 | 0.00 | 0.00 | 20 | 1012.0 |
| 20260508235756 | 77 | 315 | 7.0 | 13.0 | 0.00 | 0.00 | 0.00 | 20 | 1012.0 |
| 20260508234742 | 77 | 311 | 7.0 | 14.0 | 0.00 | 0.00 | 0.00 | 20 | 1012.1 |
| 20260508233745 | 76 | 337 | 7.0 | 14.0 | 0.00 | 0.00 | 0.00 | 21 | 1012.1 |
| 20260508232734 | 76 | 271 | 6.0 | 10.0 | 0.00 | 0.00 | 0.00 | 25 | 1012.1 |
| 20260508231726 | 75 | 213 | 4.0 | 12.0 | 0.00 | 0.00 | 0.00 | 27 | 1012.2 |
| 20260508230735 | 76 | 255 | 5.0 | 14.0 | 0.00 | 0.00 | 0.00 | 28 | 1012.2 |
| 20260508225727 | 75 | 215 | 7.0 | 11.0 | 0.00 | 0.00 | 0.00 | 26 | 1012.2 |
| 20260508224734 | 76 | 221 | 5.0 | 16.0 | 0.00 | 0.00 | 0.00 | 26 | 1012.3 |
| 20260508223800 | 76 | 299 | 5.0 | 10.0 | 0.00 | 0.00 | 0.00 | 25 | 1012.2 |
| 20260508222731 | 75 | 289 | 5.0 | 11.0 | 0.00 | 0.00 | 0.00 | 26 | 1012.5 |
| 20260508221739 | 75 | 267 | 8.0 | 11.0 | 0.00 | 0.00 | 0.00 | 24 | 1012.6 |
| 20260508220726 | 75 | 290 | 2.0 | 13.0 | 0.00 | 0.00 | 0.00 | 27 | 1012.7 |
| 20260508215741 | 74 | 331 | 7.0 | 13.0 | 0.00 | 0.00 | 0.00 | 25 | 1012.8 |
| 20260508214734 | 74 | 295 | 3.0 | 10.0 | 0.00 | 0.00 | 0.00 | 26 | 1013.0 |
| 20260508213800 | 75 | 284 | 6.0 | 16.0 | 0.00 | 0.00 | 0.00 | 26 | 1013.2 |
| 20260508212805 | 75 | 5 | 8.0 | 15.0 | 0.00 | 0.00 | 0.00 | 25 | 1013.2 |
| 20260508211731 | 74 | 284 | 5.0 | 11.0 | 0.00 | 0.00 | 0.00 | 26 | 1013.3 |
| 20260508210743 | 74 | 234 | 9.0 | 14.0 | 0.00 | 0.00 | 0.00 | 24 | 1013.3 |
| 20260508205740 | 74 | 238 | 5.0 | 19.0 | 0.00 | 0.00 | 0.00 | 27 | 1013.5 |
| 20260508204805 | 73 | 171 | 2.0 | 6.0 | 0.00 | 0.00 | 0.00 | 28 | 1013.6 |
| 20260508203729 | 73 | 278 | 0.0 | 10.0 | 0.00 | 0.00 | 0.00 | 29 | 1013.7 |
| 20260508202741 | 73 | 271 | 4.0 | 7.0 | 0.00 | 0.00 | 0.00 | 27 | 1013.8 |
| 20260508201806 | 74 | 17 | 3.0 | 10.0 | 0.00 | 0.00 | 0.00 | 28 | 1014.0 |
| 20260508200750 | 74 | 294 | 7.0 | 13.0 | 0.00 | 0.00 | 0.00 | 27 | 1014.0 |
| 20260508195742 | 73 | 238 | 3.0 | 11.0 | 0.00 | 0.00 | 0.00 | 30 | 1014.0 |